Location: Terre Du Lac
(37.9120°N, 90.6250°W)
Time: 09:07:30

Hubble Space Telescope - Visible Passes

Search period start: 17 March 2018 00:00
Search period end: 27 March 2018 00:00
Orbit: 537 x 541 km, 28.5° (Epoch: 17 March)

Date Brightness Start Highest point End Pass type
(mag) Time Alt. Az. Time Alt. Az. Time Alt. Az.
17 Mar 2.7 20:07:29 10° SW 20:10:32 20° S 20:13:16 11° SE visible
18 Mar 2.8 19:57:15 10° SW 20:00:09 18° S 20:03:02 10° SE visible
19 Mar 3.0 19:47:05 10° SW 19:49:45 17° SSW 19:52:25 10° SSE visible
